sat.trackr.live / text

‹ back to catalog

STARLINK-1357

NORAD 45565 · 2020-025AL

PAYLOAD ACTIVE UNKNOWN

§ Identity

Operator
Country
US
Launch date
2020-04-22
Launch site
AFETR
Launch vehicle
Mass (kg)
RCS (m²)

Purposes: comms

External: N2YO · Heavens-Above · Gunter

§ Orbital elements

Epoch: 2026-05-24T22:37:50.726208Z

Period
91.86 min
Inclination
53.0464°
Eccentricity
0.0007475
Mean motion
15.67614044 rev/d
Perigee alt
360.7 km
Apogee alt
370.8 km
Semi-major
6,743.9 km
B*
4.7546e-4
RAAN
24.9991°
Arg perigee
81.4298°
Mean anomaly
278.7564°
Rev number
33,798

§ Raw data

STARLINK-13571 45565U 20025AL  26144.94294822  .00052684  00000+0  47546-3 0  99942 45565  53.0464  24.9991 0007475  81.4298 278.7564 15.67614044337985

JSON: /api/v1/satellites/45565 · /tle

For live sub-satellite position, see the globe view (requires WebGL).

§ Visibility from observer

Set your observer location to see the next 7 days of passes ≥ 10°. The values pass through the URL so the page stays shareable.

No JS? Fill the form by hand. The geolocation button needs JavaScript.